Location: Rounton
(54.4000°N, 1.3500°W)
Time: 06:48:41
(UTC+00:00)

Explorer 7 - Pass Details

Date: 03 December 2021
Orbit: 483 x 674 km, 50.3° (Epoch: 16 January)

Event Time Altitude Azimuth Distance (km) Brightness Sun altitude
Rises 11:48:39 0° 274° (W) 2,624 10.2 13.4°
Reaches altitude 10° 11:51:37 10° 251° (WSW) 1,705 9.6 13.4°
Maximum altitude 11:53:50 15° 216° (SW) 1,406 10.0 13.4°
Drops below altitude 10° 11:56:01 10° 180° (S) 1,670 12.9 13.4°
Sets 11:58:53 0° 156° (SSE) 2,537 11.5 13.4°
